Content
SEND FEEDBACK

Daily
Averages
Monthly
Summary
United States of America

MONCLOVA, OHIO


Home > North America > United States > Ohio
Elevation: 663 feet     Latitude: 41 35N     Longitude: 083 48W

WEATHER
 
SELECT A DAY
Number of Records: 212,560;   Date Range: 1/1/95 - 4/14/14
 
SHARE

PRINT THIS DATA

[ ← Previous Day ]
WEATHER ALMANAC - JANUARY 31, 2013
[ Next Day → ]
[ °C ]   °F
Weather ElementAverageHighLow
Temperature23.8 °F32 °F (12:20 am)16 °F (11:52 pm)
Dewpoint14.6 °F23 °F (12:20 am)3.9 °F (8:52 pm)
Humidity68.3 %80 % (2:42 am)53 % (3:52 pm)
Barometer29.65 in29.94 in (10:52 pm)29.35 in (12:20 am)
Wind Speed24.3 mph29.9 mph (5:52 am)
Wind Gust44.9 mph (4:04 am)
Weather ElementAverage
Visibility7.1 mi
Wind DirectionW (265.2 °)

Weather ElementTotal
Precipitation---
Heating Degree Days41 (Base 65)
Averaged from 44 records on January 31, 2013
WEATHER CONDITIONS BREAKOUT
WIND DIRECTION BREAKOUT
WEATHER BY HOUR - JANUARY 31, 2013
[ °C ]   °F
Local TimeTemperatureDewpointHumidityBarometerVisibilityWind DirectionWind SpeedGust SpeedPrecipitationEventsConditions
12:20 AM32.0 °F23.0 °F69 %29.35 in10.0 miWest (280°)25.3 mph36.8 mphOvercast
12:52 AM30.9 °F23.0 °F72 %29.38 in10.0 miWest (280°)27.6 mph35.7 mphOvercast
1:41 AM30.2 °F23.0 °F75 %29.40 in9.0 miWest (270°)20.7 mph34.5 mph0.00 inSnowLight Snow
1:52 AM30.0 °F21.9 °F72 %29.42 in9.0 miWest (270°)19.6 mph32.2 mph0.00 inOvercast
2:04 AM30.2 °F21.2 °F69 %29.42 in10.0 miWest (270°)25.3 mph36.8 mphOvercast
2:42 AM28.4 °F23.0 °F80 %29.45 in2.5 miWest (260°)21.9 mph33.4 mph0.00 inSnowLight Snow
2:45 AM28.4 °F23.0 °F80 %29.45 in4.0 miWest (270°)20.7 mph31.1 mph0.00 inSnowLight Snow
2:52 AM28.9 °F21.0 °F72 %29.47 in9.0 miWest (270°)28.8 mph42.6 mph0.00 inOvercast
3:52 AM27.0 °F19.0 °F72 %29.51 in10.0 miWest (270°)23.0 mph36.8 mph0.00 inSnowLight Snow
4:04 AM26.6 °F17.6 °F69 %29.50 in7.0 miWest (260°)27.6 mph44.9 mph0.00 inSnowLight Snow
4:11 AM26.6 °F19.4 °F74 %29.51 in2.5 miWest (260°)26.5 mph38.0 mph0.00 inSnowLight Snow
4:15 AM26.6 °F19.4 °F74 %29.51 in1.5 miWest (270°)23.0 mph36.8 mph0.00 inSnowLight Snow
4:18 AM26.6 °F19.4 °F74 %29.52 in1.2 miWest (270°)25.3 mph35.7 mph0.00 inSnowLight Snow
4:30 AM26.6 °F19.4 °F74 %29.52 in2.5 miWest (260°)24.2 mph36.8 mph0.00 inSnowLight Snow
4:41 AM24.8 °F19.4 °F80 %29.53 in1.5 miWest (270°)26.5 mph40.3 mph0.00 inSnowLight Snow
4:45 AM24.8 °F19.4 °F80 %29.53 in3.0 miWest (270°)25.3 mph39.1 mph0.00 inSnowLight Snow
4:52 AM25.0 °F18.0 °F75 %29.56 in3.0 miWest (260°)26.5 mph35.7 mph0.00 inSnowLight Snow
4:59 AM24.8 °F19.4 °F80 %29.54 in2.0 miWest (270°)21.9 mph34.5 mph0.00 inSnowLight Snow
5:09 AM24.8 °F17.6 °F74 %29.55 in8.0 miWest (270°)21.9 mph29.9 mph0.00 inSnowLight Snow
5:52 AM24.1 °F15.1 °F69 %29.58 in10.0 miWest (260°)29.9 mph36.8 mph0.00 inOvercast
6:52 AM23.0 °F15.1 °F72 %29.62 in4.0 miWest (270°)25.3 mph36.8 mph0.00 inSnowLight Snow
7:52 AM23.0 °F12.9 °F65 %29.65 in10.0 miWest (260°)19.6 mph31.1 mph0.00 inOvercast
8:40 AM21.2 °F12.2 °F68 %29.66 in7.0 miWSW (250°)27.6 mph35.7 mph0.00 inSnowLight Snow
8:50 AM21.2 °F12.2 °F68 %29.66 in9.0 miWSW (250°)24.2 mph36.8 mph0.00 inSnowLight Snow
8:52 AM21.9 °F12.9 °F68 %29.69 in8.0 miWest (260°)29.9 mph39.1 mph0.00 inSnowLight Snow
8:59 AM21.2 °F12.2 °F68 %29.67 in6.0 miWSW (250°)26.5 mph39.1 mph0.00 inSnowLight Snow
9:52 AM21.0 °F12.0 °F68 %29.73 in6.0 miWest (260°)27.6 mph34.5 mph0.00 inSnowLight Snow
10:44 AM21.2 °F10.4 °F63 %29.72 in10.0 miWSW (250°)29.9 mph39.1 mph0.00 inOvercast
10:52 AM23.0 °F10.9 °F60 %29.75 in10.0 miWest (260°)27.6 mph35.7 mph0.00 inOvercast
11:52 AM21.9 °F10.0 °F60 %29.78 in10.0 miWSW (250°)28.8 mph36.8 mphOvercast
12:52 PM23.0 °F10.0 °F58 %29.78 in10.0 miWest (260°)27.6 mph39.1 mph0.00 inSnowLight Snow
1:52 PM23.0 °F10.0 °F58 %29.78 in9.0 miWest (270°)27.6 mph35.7 mph0.00 inSnowLight Snow
2:52 PM24.1 °F10.9 °F57 %29.79 in5.0 miWest (260°)28.8 mph36.8 mph0.00 inSnowLight Snow
3:52 PM23.0 °F8.1 °F53 %29.81 in10.0 miWest (270°)24.2 mph36.8 mph0.00 inOvercast
4:52 PM21.9 °F9.0 °F58 %29.82 in10.0 miWest (280°)24.2 mph28.8 mphOvercast
5:13 PM21.2 °F12.2 °F68 %29.80 in2.5 miWest (260°)19.6 mph28.8 mph0.00 inSnowLight Snow
5:34 PM19.4 °F12.2 °F74 %29.81 in3.0 miWest (270°)19.6 mph29.9 mph0.00 inSnowLight Snow
5:52 PM19.9 °F12.0 °F71 %29.85 in9.0 miWest (260°)20.7 mph27.6 mph0.00 inSnowLight Snow
6:52 PM19.0 °F6.1 °F57 %29.88 in10.0 miWest (260°)16.1 mph0.00 inScattered Clouds
7:52 PM18.0 °F6.1 °F60 %29.91 in10.0 miWest (270°)24.2 mph29.9 mphOvercast
8:52 PM17.1 °F3.9 °F56 %29.92 in10.0 miWest (280°)21.9 mph29.9 mphOvercast
9:52 PM17.1 °F6.1 °F62 %29.93 in10.0 miWest (260°)20.7 mphOvercast
10:52 PM17.1 °F6.1 °F62 %29.94 in10.0 miWest (280°)13.8 mph24.2 mphOvercast
11:52 PM16.0 °F6.1 °F65 %29.94 in10.0 miWest (270°)20.7 mph29.9 mphOvercast
Hourly data recorded from KTOL, located 0.73 miles away from Monclova, Ohio







STORIES FROM OUR PARTNERS